Back to Previous

Regional Weather Roundup

000
ASUS44 KLZK 272005
RWRLZK

WEATHER ROUNDUP FOR ARKANSAS
NATIONAL WEATHER SERVICE LITTLE ROCK AR
300 PM CDT TUE SEP 27 2016

NOTE: "FAIR" INDICATES FEW OR NO CLOUDS BELOW 12,000 FEET WITH NO
SIGNIFICANT WEATHER AND/OR OBSTRUCTIONS TO VISIBILITY.

ARZ001-003-010-029-272100-
NORTHWEST ARKANSAS
  
CITY           SKY/WX    TMP DP  RH WIND       PRES   REMARKS
FAYETTEVILLE   SUNNY     76  47  35 W5        30.04F                  
FORT SMITH     SUNNY     81  37  20 W6        30.01F                  
HARRISON       SUNNY     76  47  35 VRB7      30.03F                  
BENTONVILLE    SUNNY     79  43  27 SW8       30.04F                  
ROGERS         SUNNY     75  46  35 CALM      30.04F                  
SILOAM SPGS    SUNNY     79  43  27 W5        30.03F                  
HIGHFILL       SUNNY     80  45  28 NW6       30.03F                  
$$

ARZ004-005-016-272100-
NORTH CENTRAL ARKANSAS
  
CITY           SKY/WX    TMP DP  RH WIND       PRES   REMARKS
BATESVILLE     SUNNY     79  45  29 W7        30.00F                  
FLIPPIN        SUNNY     79  45  29 W3        29.99F                  
MTN HOME       SUNNY     77  46  33 CALM      30.01F                  
$$

ARZ040-041-272100-
WEST CENTRAL ARKANSAS
  
CITY           SKY/WX    TMP DP  RH WIND       PRES   REMARKS
MENA           SUNNY     79  46  31 CALM      30.03F                  
MOUNT IDA      SUNNY     78  44  29 NW6       30.01F                  
$$

ARZ009-017-025-026-028-272100-
NORTHEAST ARKANSAS
  
CITY           SKY/WX    TMP DP  RH WIND       PRES   REMARKS
CORNING          N/A     79  48  34 NW5       29.98F                  
JONESBORO      SUNNY     81  41  24 W7        29.98F                  
NEWPORT        SUNNY     78  42  27 CALM      29.99F                  
WALNUT RIDGE   SUNNY     79  45  29 W6        29.98F                  
BLYTHEVILLE    SUNNY     82  43  25 NW7       29.97F                  
NW BLYTHEVILLE SUNNY     81  43  26 N3        29.97F                  
$$

ARZ022-023-033-042-044-272100-
CENTRAL ARKANSAS
  
CITY           SKY/WX    TMP DP  RH WIND       PRES   REMARKS
LITTLE ROCK    MOSUNNY   81  42  25 NW7       30.01F                  
N LITTLE ROCK    N/A     76  45  32 N3        29.99F                  
JACKSONVILLE   SUNNY     79  43  27 VRB5      30.00F                  
SEARCY         SUNNY     80  46  30 VRB7      30.01F                  
HOT SPRINGS    SUNNY     79  45  29 NW7       30.01F                  
RUSSELLVILLE   SUNNY     78  45  30 VRB3      30.01F                  
$$

ARZ036-272100-
EAST ARKANSAS
  
CITY           SKY/WX    TMP DP  RH WIND       PRES   REMARKS
WEST MEMPHIS   SUNNY     79  35  20 NW6       29.97F                  
$$

ARZ050-053-066-070-073-272100-
SOUTHWEST ARKANSAS
  
CITY           SKY/WX    TMP DP  RH WIND       PRES   REMARKS
ARKADELPHIA    FAIR      78  51  38 NW5       30.02F                  
TEXARKANA      MOSUNNY   81  49  32 VRB6G16   30.02F                  
EL DORADO      MOSUNNY   78  53  41 NW6       30.01F                  
DE QUEEN       SUNNY     80  50  34 W6        30.00F                  
$$

ARZ056-057-069-272100-
SOUTHEAST ARKANSAS
  
CITY           SKY/WX    TMP DP  RH WIND       PRES   REMARKS
PINE BLUFF     SUNNY     78  45  30 NW8       30.00F                  
STUTTGART      SUNNY     79  43  27 N6        30.00F                  
MONTICELLO     SUNNY     82  54  37 VRB6      29.99F                  

$$


  

USA.gov is the U.S. government's official web portal to all federal, state and local government web resources and services.